[[{"header":{"parameterUnit":"m.s-1","parameterCategory":1,"la1":30.2991,"la2":30.254,"lo1":-89.0895,"lo2":-89.0444,"dy":0.0017,"dx":0.0017,"nx":28,"ny":28,"refTime":"2023-04-27T21:00:00:Z","depth":0,"parameterNumber":2,"parameterNumberName":"U-component_of_WINDS"},"data":[0,0,0,0,0,0,0,0,0,0,0,0,0,0,0,0,0,0,0,0,0,0,0,0,0,0,0,0,0,0,0,0,0,0,0,0,0,0,0,0,0,0,0,0,0,0,0,0,0,0,0,0,0,0,0,0,0,0,4.432,4.4321,0,4.4461,4.4463,4.4464,4.4395,4.4391,4.4388,4.4384,4.4532,4.4539,4.4546,0,0,0,0,0,0,0,0,0,0,0,0,0,4.3993,4.4,4.432,4.4322,4.4323,4.4461,4.4463,4.4465,4.4396,4.4391,4.4387,4.4383,4.4529,4.4538,4.4547,0,0,0,0,0,0,0,0,0,0,0,0,0,4.4135,4.4002,4.4319,4.4305,4.4306,4.446,4.4463,4.4465,4.4397,4.4391,4.4386,4.438,4.4526,4.4537,4.4548,4.4726,0,0,4.4581,4.4586,0,0,0,0,0,0,0,0,4.4127,4.4147,4.4306,4.4307,4.4307,4.4405,4.4401,4.4553,4.4398,4.4362,4.4384,4.4378,4.4494,4.4507,4.4546,4.4732,4.4739,4.4582,4.4589,4.4594,4.4597,0,0,0,0,0,0,0,4.4117,4.4141,4.4376,4.4308,4.4309,4.4293,4.4307,4.443,4.4457,4.4365,4.436,4.4378,4.4493,4.4535,4.4549,4.4741,4.4582,4.4592,4.4599,4.4603,4.5081,4.5087,0,0,0,0,0,0,4.4108,4.4133,4.4371,4.438,4.4202,4.4303,4.4319,4.4379,4.4456,4.4462,4.4382,4.4374,4.4519,4.4536,4.4554,4.4768,4.4594,4.4604,4.461,4.5075,4.5083,4.5089,0,0,0,0,0,0,4.4101,4.413,4.4365,4.4255,4.4284,4.4315,4.4383,4.4385,4.4427,4.4469,4.4473,4.442,4.4516,4.4538,4.4683,4.4772,4.4609,4.4619,4.5068,4.5078,4.5086,4.5197,0,0,0,0,0,0,4.4092,4.4128,4.4195,4.4257,4.429,4.4492,4.4388,4.4391,4.4446,4.4436,4.4506,4.4512,4.4513,4.4667,4.4694,4.4784,4.4628,4.506,4.5072,4.5083,4.5185,4.5208,4.5228,0,0,0,0,0,4.408,4.4221,4.4199,4.4228,4.4375,4.4497,4.4516,4.4514,4.4453,4.4521,4.4548,4.451,4.4758,4.4683,4.4713,4.4807,4.5055,4.5069,4.5082,4.5176,4.5204,4.5228,0,0,0,0,0,0,4.4169,4.4229,4.4205,4.4369,4.4429,4.4485,4.4572,4.4544,4.4623,4.4611,4.4606,4.4622,4.4773,4.4804,4.472,4.4983,4.4897,4.4917,4.4958,4.4985,4.5006,4.4996,4.4637,0,0,0,0,0,4.4207,4.4301,4.4348,4.4489,4.452,4.4541,4.4594,4.4587,4.4649,4.4674,4.4712,4.4774,4.4866,4.4927,4.5014,4.5189,4.5204,4.5269,4.529,4.5308,4.5326,4.5422,4.5451,4.5135,4.5134,4.5134,0,0,4.4288,4.4332,4.4392,4.4508,4.4553,4.4652,4.4563,4.467,4.4744,4.4691,4.483,4.486,4.493,4.5091,4.5164,4.5122,4.5416,4.5325,4.5339,4.5348,4.5439,4.5469,4.5496,4.5144,4.5142,4.5141,0,0,4.4485,4.4528,4.465,4.4697,4.4767,4.4779,4.4809,4.487,4.4888,4.5027,4.499,4.5078,4.5236,4.5287,4.5334,4.5551,4.5519,4.558,4.5693,4.5786,4.5811,4.5833,4.5912,4.594,4.5597,4.5598,4.5598,0,4.4577,4.4723,4.4716,4.4827,4.488,4.4836,4.496,4.5007,4.5102,4.514,4.5091,4.5289,4.5332,4.5505,4.5558,4.5597,4.5631,4.5572,4.5808,4.583,4.5851,4.5926,4.5955,4.5605,4.5604,4.5603,4.5602,0,4.4833,4.4935,4.5025,4.5117,4.518,4.5297,4.5309,4.5374,4.5362,4.538,4.5524,4.5574,4.5671,4.5711,4.57,4.5883,4.5855,4.5808,4.5721,4.5888,4.5958,4.5987,4.5615,4.5612,4.561,4.5608,0,0,4.5091,4.5177,4.5211,4.5252,4.5326,4.5405,4.5521,4.5614,4.567,4.5737,4.5835,4.597,4.5926,4.598,4.5974,4.6056,4.6227,4.5999,4.6,4.604,4.6432,4.6468,4.6502,4.6205,4.6211,4.6215,4.6427,0,4.5294,4.5495,4.5493,4.568,4.5775,4.5735,4.5835,4.5892,4.5913,4.5996,4.6019,4.6115,4.605,4.6082,4.6161,4.6189,4.6305,4.6174,4.6297,4.6302,4.6282,4.6538,4.6577,4.6774,4.6454,4.6459,4.6462,0,4.5558,4.5634,4.583,4.589,4.593,4.602,4.6107,4.6187,4.6251,4.626,4.6319,4.6301,4.642,4.6329,4.6493,4.6403,4.6454,4.6475,4.6483,4.6495,4.6393,4.6559,4.6837,4.6867,4.6505,4.6502,4.6499,0,4.5728,4.5878,4.6015,4.6052,4.6126,4.619,4.6224,4.6282,4.6339,4.6415,4.6452,4.654,4.6589,4.6659,4.6666,4.6598,4.6831,4.674,4.6843,4.6843,4.6895,4.6892,4.7187,4.6926,4.6925,4.6925,4.6924,0,4.5956,4.6078,4.6093,4.6177,4.6313,4.6309,4.6444,4.6472,4.6525,4.6615,4.6585,4.667,4.6674,4.6761,4.6767,4.6903,4.6925,4.6936,4.6937,4.694,4.6939,4.6974,4.696,4.6933,4.6931,4.6929,4.6928,0,4.6169,4.6184,4.6331,4.6388,4.6405,4.6503,4.6552,4.6633,4.6651,4.6765,4.6792,4.682,4.6921,4.6934,4.7054,4.7058,4.7221,4.7206,4.7199,4.7198,4.73,4.7291,4.7628,4.7673,4.7382,4.7385,4.7387,0,4.6314,4.6407,4.6475,4.6532,4.6569,4.6663,4.672,4.6721,4.6782,4.6862,4.6934,4.7032,4.7111,4.7275,4.7307,4.7398,4.7386,4.7498,4.74,4.74,4.7389,4.7384,4.7394,4.7518,4.7521,4.7523,4.7525,0,4.6571,4.6574,4.6657,4.6744,4.6814,4.6882,4.6947,4.6996,4.7004,4.7075,4.7178,4.7239,4.7361,4.7459,4.7549,4.7585,4.7558,4.7556,4.7585,4.7589,4.7582,4.7588,4.7252,4.7549,4.7546,4.7545,4.7543,4.7542,4.6756,4.6836,4.6896,4.6991,4.7039,4.71,4.7179,4.7206,4.7292,4.739,4.7385,4.7499,4.7561,4.7679,4.7721,4.7811,4.7774,4.7816,4.7826,4.7837,4.7847,4.7567,4.7827,4.7826,4.7826,4.7825,4.7825,0,4.7011,4.7048,4.7135,4.7226,4.7301,4.7267,4.7337,4.7402,4.7502,4.7562,4.764,4.7759,4.7854,4.7893,4.7987,4.8051,4.8041,4.8076,4.8072,4.8081,4.7874,4.7841,4.8082,4.8082,4.8082,4.8082,4.8082,4.8082,4.7154,4.7289,4.7299,4.7458,4.7494,4.7605,4.7648,4.7704,4.7752,4.7886,4.7964,4.7989,4.804,4.8138,4.8224,4.8233,4.8269,4.831,4.8314,4.8121,4.8095,4.807,4.8038,4.8318,4.8318,4.8512,4.8514,4.8516]},{"header":{"parameterUnit":"m.s-1","parameterCategory":1,"la1":30.2991,"la2":30.254,"lo1":-89.0895,"lo2":-89.0444,"dy":0.0017,"dx":0.0017,"nx":28,"ny":28,"refTime":"2023-04-27T21:00:00:Z","depth":0,"parameterNumber":3,"parameterNumberName":"V-component_of_WINDS"},"data":[0,0,0,0,0,0,0,0,0,0,0,0,0,0,0,0,0,0,0,0,0,0,0,0,0,0,0,0,0,0,0,0,0,0,0,0,0,0,0,0,0,0,0,0,0,0,0,0,0,0,0,0,0,0,0,0,0,0,-0.1453,-0.1453,0,-0.1429,-0.1429,-0.1429,-0.1426,-0.1427,-0.1427,-0.1427,-0.1402,-0.1401,-0.14,0,0,0,0,0,0,0,0,0,0,0,0,0,-0.1498,-0.1498,-0.1453,-0.1453,-0.1453,-0.1429,-0.1429,-0.1429,-0.1426,-0.1427,-0.1427,-0.1427,-0.1402,-0.1401,-0.14,0,0,0,0,0,0,0,0,0,0,0,0,0,-0.1477,-0.1497,-0.1454,-0.1449,-0.1448,-0.1429,-0.1429,-0.1429,-0.1426,-0.1427,-0.1427,-0.1427,-0.1403,-0.1402,-0.14,-0.1384,0,0,-0.1396,-0.1395,0,0,0,0,0,0,0,0,-0.1478,-0.1475,-0.145,-0.1449,-0.1448,-0.1431,-0.1436,-0.1414,-0.1426,-0.1435,-0.1427,-0.1428,-0.1412,-0.1409,-0.1404,-0.1383,-0.1382,-0.1396,-0.1395,-0.1395,-0.1394,0,0,0,0,0,0,0,-0.148,-0.1476,-0.1444,-0.145,-0.1449,-0.1448,-0.1446,-0.1431,-0.1421,-0.1434,-0.1434,-0.1431,-0.1411,-0.1405,-0.1404,-0.1382,-0.1396,-0.1395,-0.1394,-0.1393,-0.1348,-0.1347,0,0,0,0,0,0,-0.1482,-0.1478,-0.1445,-0.1443,-0.1465,-0.1447,-0.1444,-0.1436,-0.1421,-0.1419,-0.1431,-0.1431,-0.1408,-0.1405,-0.1403,-0.1384,-0.1395,-0.1393,-0.1392,-0.1348,-0.1347,-0.1347,0,0,0,0,0,0,-0.1483,-0.1479,-0.1446,-0.146,-0.1456,-0.1446,-0.1437,-0.1436,-0.143,-0.1419,-0.1417,-0.1427,-0.1408,-0.1405,-0.1389,-0.1383,-0.1393,-0.1391,-0.1348,-0.1348,-0.1347,-0.1345,0,0,0,0,0,0,-0.1484,-0.1479,-0.1473,-0.146,-0.1455,-0.1432,-0.1437,-0.1435,-0.1428,-0.1428,-0.1415,-0.1413,-0.1408,-0.1391,-0.1388,-0.1381,-0.139,-0.1349,-0.1348,-0.1347,-0.1346,-0.1344,-0.1343,0,0,0,0,0,-0.1486,-0.1473,-0.1473,-0.1469,-0.1447,-0.1432,-0.1429,-0.1424,-0.1427,-0.1421,-0.1414,-0.1413,-0.1384,-0.139,-0.1386,-0.1378,-0.1349,-0.1348,-0.1347,-0.1346,-0.1345,-0.1343,0,0,0,0,0,0,-0.1485,-0.1471,-0.1471,-0.1453,-0.1444,-0.1432,-0.1423,-0.1422,-0.1411,-0.1412,-0.1406,-0.1403,-0.1388,-0.1382,-0.1388,-0.1363,-0.1367,-0.1365,-0.1367,-0.1366,-0.1365,-0.1366,-0.1389,0,0,0,0,0,-0.1483,-0.1471,-0.146,-0.1446,-0.1441,-0.1433,-0.1426,-0.1423,-0.1413,-0.1409,-0.1401,-0.1391,-0.138,-0.1373,-0.1362,-0.1345,-0.1342,-0.1338,-0.1337,-0.1336,-0.1335,-0.1326,-0.1325,-0.1344,-0.1344,-0.1344,0,0,-0.1478,-0.1469,-0.1462,-0.1446,-0.1438,-0.1427,-0.143,-0.1417,-0.1409,-0.1407,-0.1392,-0.1386,-0.1375,-0.1359,-0.1352,-0.1353,-0.1329,-0.1335,-0.1334,-0.1333,-0.1325,-0.1323,-0.1322,-0.1343,-0.1343,-0.1344,0,0,-0.1463,-0.1455,-0.1443,-0.1436,-0.1424,-0.1419,-0.1416,-0.1404,-0.14,-0.1385,-0.1384,-0.1374,-0.1355,-0.1347,-0.1341,-0.1325,-0.1324,-0.1322,-0.1316,-0.1308,-0.1306,-0.1305,-0.13,-0.1298,-0.132,-0.132,-0.132,0,-0.1459,-0.1442,-0.1437,-0.1425,-0.1418,-0.1416,-0.1404,-0.1397,-0.1382,-0.1378,-0.138,-0.1357,-0.1349,-0.1332,-0.1328,-0.1323,-0.132,-0.1323,-0.1307,-0.1305,-0.1304,-0.1299,-0.1297,-0.132,-0.132,-0.132,-0.132,0,-0.1437,-0.1425,-0.1417,-0.1403,-0.1396,-0.1384,-0.1377,-0.137,-0.1368,-0.1363,-0.1348,-0.1339,-0.1327,-0.1322,-0.132,-0.1305,-0.1307,-0.1308,-0.1312,-0.1302,-0.1297,-0.1295,-0.132,-0.132,-0.132,-0.132,0,0,-0.142,-0.1405,-0.1402,-0.1397,-0.1384,-0.1375,-0.1364,-0.1352,-0.1346,-0.1337,-0.1327,-0.1311,-0.1313,-0.1306,-0.1302,-0.1295,-0.1284,-0.1298,-0.1297,-0.1296,-0.1268,-0.1267,-0.1265,-0.1284,-0.1284,-0.1283,-0.1269,0,-0.1405,-0.1384,-0.138,-0.1362,-0.1351,-0.135,-0.134,-0.1332,-0.1327,-0.1318,-0.1313,-0.1302,-0.1304,-0.13,-0.1293,-0.1287,-0.1279,-0.1288,-0.1275,-0.1275,-0.1278,-0.1263,-0.1261,-0.1249,-0.1267,-0.1267,-0.1267,0,-0.1383,-0.1374,-0.1355,-0.1345,-0.1341,-0.1332,-0.1321,-0.1312,-0.1303,-0.13,-0.1293,-0.1291,-0.128,-0.1285,-0.1269,-0.1276,-0.127,-0.1267,-0.1266,-0.1264,-0.127,-0.1261,-0.1244,-0.1242,-0.1264,-0.1264,-0.1264,0,-0.1374,-0.1356,-0.1343,-0.1338,-0.1326,-0.132,-0.1315,-0.1306,-0.13,-0.1291,-0.1287,-0.1276,-0.127,-0.1263,-0.1258,-0.1262,-0.1243,-0.1248,-0.1241,-0.1241,-0.1236,-0.1237,-0.1219,-0.1233,-0.1233,-0.1233,-0.1233,0,-0.1357,-0.1345,-0.1338,-0.133,-0.1318,-0.1313,-0.1301,-0.1296,-0.1289,-0.128,-0.1278,-0.127,-0.1265,-0.1256,-0.1252,-0.124,-0.1238,-0.1235,-0.1235,-0.1235,-0.1236,-0.1232,-0.1233,-0.1233,-0.1233,-0.1233,-0.1233,0,-0.1343,-0.1338,-0.1324,-0.1314,-0.1312,-0.1303,-0.1295,-0.1287,-0.1283,-0.1272,-0.1269,-0.1262,-0.1252,-0.1247,-0.1234,-0.1231,-0.1218,-0.1218,-0.1221,-0.1221,-0.1214,-0.1215,-0.1193,-0.119,-0.1206,-0.1206,-0.1206,0,-0.1333,-0.1324,-0.1314,-0.1308,-0.1303,-0.1293,-0.1287,-0.1283,-0.1276,-0.1266,-0.126,-0.1249,-0.1241,-0.1225,-0.1219,-0.1209,-0.1209,-0.1202,-0.1207,-0.1209,-0.1209,-0.1209,-0.1209,-0.12,-0.12,-0.12,-0.12,0,-0.1315,-0.1313,-0.1304,-0.1294,-0.1287,-0.1279,-0.1271,-0.1266,-0.1261,-0.1254,-0.1244,-0.1237,-0.1224,-0.1214,-0.1205,-0.12,-0.1199,-0.1199,-0.1197,-0.1197,-0.12,-0.1199,-0.1218,-0.1199,-0.1199,-0.1199,-0.1199,-0.1199,-0.1303,-0.1295,-0.1287,-0.1277,-0.1271,-0.1264,-0.1257,-0.1252,-0.1243,-0.1233,-0.1231,-0.122,-0.1213,-0.1199,-0.1194,-0.1186,-0.1187,-0.1184,-0.1184,-0.1183,-0.1183,-0.1201,-0.1184,-0.1184,-0.1184,-0.1184,-0.1184,0,-0.1285,-0.128,-0.1271,-0.126,-0.1253,-0.1254,-0.1245,-0.1239,-0.123,-0.1223,-0.1215,-0.1203,-0.1194,-0.1188,-0.1178,-0.1173,-0.1172,-0.1171,-0.1171,-0.117,-0.1182,-0.1185,-0.1171,-0.1171,-0.1171,-0.1171,-0.1171,-0.1171,-0.1275,-0.1262,-0.126,-0.1245,-0.124,-0.1229,-0.1225,-0.1219,-0.1213,-0.1201,-0.1193,-0.1189,-0.1183,-0.1173,-0.1165,-0.1163,-0.116,-0.1158,-0.1156,-0.1168,-0.1169,-0.117,-0.1173,-0.1157,-0.1157,-0.1145,-0.1145,-0.1145]}]]